GAOFEN 9

导读

GAOFEN 9(高分九号)是中国于2015年9月14日8时发射的光学遥感卫星,隶属于中国高分专项工程。该卫星主要应用于国土普查、城市规划、农作物估产、防灾减灾等领域,还可为“一带一路”建设等提供信息保障。其地面像元分辨率可达亚米级,能获取高清晰度遥感影像,在国民经济建设中发挥重要作用,进一步提升了中国遥感卫星的应用能力。

Basic Information
目录编号:
40894
目录名称:
GAOFEN 9
国际标识:
2015-047A
轨道中心:
EARTH
卫星名称:
GAOFEN 9
卫星全名:
--
卫星状态:
在轨 (已飞行3925 天)
发射日期:
2015-09-14 UTC
国别 :
中国 (CN)
星等 :
--
Orbit Information
数据来源 国际轨道数据 AOE轨道数据
星历时间 2026-06-13T05:05:41+0800
6小时前
查看轨道信息
2026-06-08T23:00:00+0800
4天前
查看轨道信息
半长轴 6998.398km 6998.412km
偏心率 0.0028083 0.0027777
轨道倾角 97.628° 97.629°
近地点辐角 151.485° 164.577°
升交点赤经 199.769° 195.710°
平近点角 208.790° 180.681°
近地点 600.607km 600.835km
远地点 639.915km 639.715km
周期 97.109分钟 97.109分钟
每日圈数 14.828761 14.828717
Detailed Information
使用方式:
暂无
2D Orbit Map
3D Orbit Map
Orbit Altitude Analysis Chart
Orbit Inclination Analysis Chart
Orbit Comprehensive Analysis Chart
View Comprehensive Chart